[[{"header":{"parameterUnit":"m.s-1","parameterCategory":1,"la1":30.2991,"la2":30.254,"lo1":-89.0895,"lo2":-89.0444,"dy":0.0017,"dx":0.0017,"nx":28,"ny":28,"refTime":"2023-08-17T09:00:00:Z","depth":0,"parameterNumber":2,"parameterNumberName":"U-component_of_WINDS"},"data":[0,0,0,0,0,0,0,0,0,0,0,0,0,0,0,0,0,0,0,0,0,0,0,0,0,0,0,0,0,0,0,0,0,0,0,0,0,0,0,0,0,0,0,0,0,0,0,0,0,0,0,0,0,0,0,0,0,0,2.7456,2.7456,0,2.7495,2.7496,2.7496,2.7456,2.7454,2.7453,2.7451,2.7491,2.7493,2.7495,0,0,0,0,0,0,0,0,0,0,0,0,0,2.7342,2.7344,2.7456,2.7456,2.7457,2.7495,2.7496,2.7496,2.7456,2.7454,2.7453,2.7451,2.749,2.7493,2.7496,0,0,0,0,0,0,0,0,0,0,0,0,0,2.7387,2.7345,2.7456,2.7441,2.7441,2.7495,2.7496,2.7497,2.7457,2.7454,2.7452,2.745,2.7489,2.7492,2.7496,2.7566,0,0,2.7508,2.7509,0,0,0,0,0,0,0,0,2.7385,2.7392,2.7443,2.7442,2.7442,2.7468,2.747,2.752,2.7457,2.7451,2.7451,2.7449,2.7485,2.7489,2.7501,2.7568,2.757,2.7508,2.751,2.7512,2.7513,0,0,0,0,0,0,0,2.7382,2.739,2.7471,2.7444,2.7443,2.7432,2.7436,2.7479,2.748,2.7451,2.7448,2.7453,2.7484,2.7498,2.7502,2.757,2.7508,2.7511,2.7513,2.7515,2.7692,2.7695,0,0,0,0,0,0,2.738,2.7387,2.747,2.7473,2.7407,2.7436,2.744,2.7462,2.748,2.748,2.7455,2.7451,2.7493,2.7498,2.7503,2.7583,2.7512,2.7515,2.7517,2.769,2.7693,2.7696,0,0,0,0,0,0,2.7378,2.7388,2.7468,2.7429,2.7439,2.744,2.7465,2.7464,2.7478,2.7483,2.7483,2.7469,2.7491,2.7498,2.755,2.7584,2.7517,2.752,2.7687,2.7691,2.7694,2.7746,0,0,0,0,0,0,2.7375,2.7388,2.7415,2.743,2.7441,2.7516,2.7468,2.7467,2.7485,2.748,2.7496,2.7497,2.749,2.7545,2.7554,2.7588,2.7523,2.7684,2.7689,2.7693,2.7741,2.7751,2.7759,0,0,0,0,0,2.7371,2.7429,2.7417,2.7427,2.7476,2.7518,2.7524,2.7515,2.7488,2.7514,2.7517,2.7496,2.758,2.755,2.756,2.7596,2.7682,2.7687,2.7693,2.7737,2.7749,2.7759,0,0,0,0,0,0,2.7419,2.7431,2.7418,2.7482,2.7499,2.7511,2.7545,2.7529,2.7554,2.7548,2.7535,2.7539,2.7594,2.7601,2.7568,2.7663,2.7626,2.7634,2.7656,2.7668,2.7677,2.7672,2.7526,0,0,0,0,0,2.7437,2.7471,2.7479,2.7535,2.7545,2.7543,2.7562,2.7553,2.757,2.7577,2.7584,2.7601,2.763,2.765,2.7678,2.7743,2.7744,2.7772,2.7781,2.7789,2.7795,2.7826,2.7837,2.7714,2.7714,2.7714,0,0,2.7474,2.7485,2.7507,2.7545,2.7557,2.7591,2.755,2.7588,2.7613,2.7583,2.7631,2.7637,2.7655,2.7712,2.7738,2.772,2.7829,2.7796,2.7802,2.7804,2.7833,2.7844,2.7855,2.7717,2.7717,2.7716,0,0,2.7559,2.7572,2.7618,2.7631,2.7649,2.7648,2.7659,2.7673,2.7675,2.7724,2.7701,2.773,2.7782,2.7794,2.7807,2.7894,2.7874,2.7904,2.795,2.7981,2.799,2.7999,2.8026,2.8037,2.791,2.791,2.791,0,2.7602,2.7653,2.7644,2.7683,2.7699,2.7673,2.7718,2.7731,2.7758,2.7769,2.7748,2.781,2.7821,2.7879,2.79,2.7913,2.7923,2.79,2.799,2.7998,2.8006,2.8032,2.8043,2.7913,2.7913,2.7913,2.7912,0,2.7704,2.774,2.7775,2.78,2.782,2.7863,2.7857,2.7879,2.7868,2.7868,2.7917,2.7928,2.7956,2.797,2.7961,2.8026,2.8013,2.7992,2.7954,2.8021,2.8045,2.8055,2.7918,2.7917,2.7916,2.7915,0,0,2.782,2.7838,2.785,2.786,2.7878,2.7904,2.7945,2.7972,2.7988,2.8008,2.8039,2.8083,2.8061,2.8076,2.8068,2.8095,2.8159,2.807,2.807,2.8083,2.8227,2.8241,2.8253,2.8147,2.8149,2.815,2.8225,0,2.7902,2.7971,2.7962,2.8028,2.8058,2.8033,2.8067,2.8081,2.8082,2.8107,2.8108,2.8138,2.811,2.8118,2.8144,2.8145,2.8187,2.814,2.8173,2.8174,2.8166,2.8266,2.8282,2.8352,2.8234,2.8236,2.8237,0,2.8007,2.8028,2.8096,2.8106,2.8119,2.815,2.8172,2.8197,2.8212,2.821,2.8226,2.8212,2.825,2.8213,2.8263,2.8231,2.8244,2.8247,2.8249,2.8249,2.8208,2.8266,2.8374,2.8383,2.8253,2.8251,2.825,0,2.8079,2.8126,2.8171,2.8181,2.8195,2.8216,2.8223,2.8235,2.8251,2.827,2.828,2.8304,2.8316,2.8335,2.8327,2.8301,2.8377,2.8341,2.8375,2.8375,2.839,2.8388,2.8498,2.8404,2.8404,2.8403,2.8403,0,2.817,2.8212,2.8203,2.8231,2.8276,2.8265,2.831,2.8314,2.8324,2.8351,2.8332,2.8357,2.8347,2.8371,2.8366,2.8406,2.8413,2.8411,2.8408,2.8411,2.8411,2.8417,2.8411,2.8406,2.8406,2.8405,2.8405,0,2.8258,2.8254,2.8302,2.831,2.8313,2.8346,2.8352,2.8377,2.8376,2.841,2.8418,2.8416,2.8443,2.8438,2.8469,2.8464,2.8514,2.8507,2.8509,2.8506,2.8539,2.8534,2.8654,2.8668,2.8568,2.8569,2.8569,0,2.8314,2.8345,2.8356,2.8373,2.8381,2.8408,2.8423,2.8413,2.843,2.8447,2.8469,2.8495,2.8514,2.8559,2.856,2.8582,2.8574,2.8614,2.8577,2.8577,2.857,2.8567,2.8568,2.862,2.8621,2.8622,2.8623,0,2.8414,2.8409,2.8433,2.8454,2.8473,2.849,2.8505,2.8519,2.851,2.853,2.8557,2.8572,2.8602,2.8627,2.8647,2.8653,2.8635,2.8635,2.8643,2.8645,2.8643,2.8641,2.8525,2.8632,2.8631,2.863,2.863,2.863,2.8485,2.851,2.8521,2.8546,2.8556,2.857,2.8592,2.8594,2.8616,2.8639,2.8633,2.8663,2.8674,2.8699,2.8707,2.8729,2.8714,2.8728,2.873,2.8733,2.8735,2.8642,2.8734,2.8733,2.8733,2.8733,2.8733,0,2.858,2.8585,2.8609,2.8629,2.8648,2.8631,2.8646,2.8663,2.869,2.8702,2.8721,2.875,2.8774,2.8776,2.8797,2.8815,2.8807,2.882,2.8817,2.8818,2.8749,2.8738,2.8826,2.8826,2.8826,2.8826,2.8826,2.8826,2.8631,2.8671,2.8668,2.8712,2.8717,2.8746,2.8756,2.8767,2.8776,2.881,2.8829,2.883,2.8837,2.8859,2.8879,2.8878,2.8886,2.8901,2.8898,2.8833,2.8823,2.8814,2.8804,2.8904,2.8904,2.8964,2.8965,2.8965]},{"header":{"parameterUnit":"m.s-1","parameterCategory":1,"la1":30.2991,"la2":30.254,"lo1":-89.0895,"lo2":-89.0444,"dy":0.0017,"dx":0.0017,"nx":28,"ny":28,"refTime":"2023-08-17T09:00:00:Z","depth":0,"parameterNumber":3,"parameterNumberName":"V-component_of_WINDS"},"data":[0,0,0,0,0,0,0,0,0,0,0,0,0,0,0,0,0,0,0,0,0,0,0,0,0,0,0,0,0,0,0,0,0,0,0,0,0,0,0,0,0,0,0,0,0,0,0,0,0,0,0,0,0,0,0,0,0,0,4.4859,4.4859,0,4.4905,4.4905,4.4906,4.4836,4.4833,4.4831,4.4829,4.4871,4.4874,4.4877,0,0,0,0,0,0,0,0,0,0,0,0,0,4.4704,4.4707,4.4859,4.4859,4.486,4.4904,4.4905,4.4906,4.4836,4.4833,4.483,4.4828,4.487,4.4873,4.4878,0,0,0,0,0,0,0,0,0,0,0,0,0,4.4763,4.4708,4.4858,4.4831,4.4829,4.4904,4.4905,4.4906,4.4837,4.4833,4.483,4.4826,4.4868,4.4873,4.4878,4.4982,0,0,4.4893,4.4896,0,0,0,0,0,0,0,0,4.4759,4.4768,4.4834,4.4833,4.4831,4.4861,4.4866,4.4931,4.4838,4.4834,4.4829,4.4824,4.487,4.4875,4.4891,4.4984,4.4985,4.4894,4.4897,4.4899,4.4901,0,0,0,0,0,0,0,4.4755,4.4766,4.4876,4.4835,4.4833,4.4814,4.4818,4.4878,4.4871,4.4834,4.4829,4.4835,4.4868,4.4886,4.4891,4.4986,4.4894,4.4898,4.4901,4.4903,4.5163,4.5166,0,0,0,0,0,0,4.4756,4.4763,4.4875,4.4878,4.4786,4.4819,4.4824,4.4855,4.4871,4.487,4.4838,4.4832,4.4879,4.4886,4.4893,4.5013,4.4899,4.4904,4.4907,4.5159,4.5163,4.5168,0,0,0,0,0,0,4.4753,4.4766,4.4873,4.4819,4.4831,4.4826,4.4861,4.4857,4.4875,4.4874,4.4872,4.4859,4.4877,4.4886,4.496,4.5013,4.4906,4.4911,4.5154,4.516,4.5166,4.5255,0,0,0,0,0,0,4.4748,4.4766,4.4807,4.4821,4.4835,4.4942,4.4864,4.4861,4.4885,4.4877,4.4893,4.4892,4.4875,4.4953,4.4965,4.5018,4.4915,4.5149,4.5157,4.5164,4.5247,4.5263,4.5277,0,0,0,0,0,4.4743,4.4829,4.4809,4.4823,4.4886,4.4945,4.4953,4.4933,4.489,4.4929,4.4928,4.4891,4.5006,4.4961,4.4974,4.503,4.5146,4.5155,4.5163,4.5241,4.526,4.5276,0,0,0,0,0,0,4.482,4.4831,4.4808,4.4902,4.4923,4.4933,4.4983,4.4955,4.4987,4.4978,4.4951,4.4955,4.5034,4.5039,4.4989,4.5129,4.5068,4.508,4.5123,4.5141,4.5156,4.5152,4.4919,0,0,0,0,0,4.4848,4.4897,4.4903,4.4985,4.4997,4.4989,4.5013,4.4997,4.5017,4.5025,4.5029,4.5048,4.5088,4.5115,4.5152,4.5248,4.5249,4.5293,4.5308,4.532,4.5329,4.5378,4.5397,4.5196,4.5196,4.5196,0,0,4.4906,4.4918,4.4951,4.5001,4.5015,4.5064,4.4996,4.5052,4.5087,4.5032,4.5102,4.5107,4.5126,4.5211,4.5248,4.5218,4.5385,4.5331,4.5341,4.5344,4.5389,4.5408,4.5424,4.5202,4.5201,4.52,0,0,4.5037,4.5052,4.5121,4.5137,4.516,4.5153,4.517,4.5184,4.5185,4.5255,4.5215,4.5255,4.5326,4.5341,4.5358,4.5493,4.5459,4.5506,4.5582,4.5629,4.5645,4.5659,4.5704,4.5721,4.5516,4.5516,4.5516,0,4.5105,4.5179,4.5159,4.5217,4.5239,4.5194,4.5262,4.5278,4.5311,4.5326,4.5292,4.5378,4.5389,4.5475,4.5508,4.5524,4.554,4.5503,4.5645,4.5658,4.5671,4.5714,4.5731,4.5521,4.5521,4.552,4.552,0,4.5261,4.5313,4.5365,4.54,4.5428,4.5491,4.5478,4.5508,4.5489,4.5485,4.5556,4.5567,4.5604,4.5624,4.5605,4.5707,4.5687,4.565,4.5587,4.5696,4.5736,4.5752,4.5529,4.5527,4.5525,4.5524,0,0,4.544,4.5463,4.5482,4.5496,4.5518,4.5557,4.5616,4.5654,4.5679,4.5704,4.5751,4.5812,4.5777,4.5796,4.5778,4.582,4.5923,4.5777,4.5777,4.5802,4.6033,4.6059,4.6079,4.5902,4.5905,4.5907,4.6031,0,4.5568,4.5673,4.5655,4.5755,4.5801,4.5759,4.581,4.5827,4.5826,4.5862,4.5859,4.5902,4.5854,4.5865,4.5905,4.5903,4.5969,4.5894,4.5943,4.5945,4.5937,4.61,4.6129,4.6244,4.6046,4.6049,4.6051,0,4.5731,4.5763,4.5867,4.588,4.5899,4.5946,4.5977,4.6015,4.6033,4.6028,4.605,4.6024,4.608,4.6019,4.6095,4.6045,4.6064,4.6066,4.6069,4.6071,4.6003,4.6104,4.6281,4.6298,4.6076,4.6074,4.6072,0,4.5848,4.5916,4.5987,4.6001,4.6019,4.6052,4.606,4.6075,4.6099,4.6126,4.614,4.6175,4.6192,4.6218,4.6201,4.6159,4.6279,4.6217,4.6275,4.6275,4.63,4.6298,4.648,4.6317,4.6317,4.6317,4.6316,0,4.5991,4.6056,4.604,4.6083,4.6154,4.6133,4.6203,4.6206,4.622,4.6261,4.6226,4.6265,4.6242,4.6279,4.6266,4.633,4.6339,4.6335,4.633,4.6337,4.6337,4.6347,4.6337,4.6321,4.632,4.6319,4.6318,0,4.6133,4.6125,4.6199,4.6209,4.6214,4.6265,4.6273,4.6312,4.6308,4.636,4.6371,4.6364,4.6405,4.6392,4.6436,4.6427,4.6507,4.6494,4.6502,4.6497,4.6554,4.6548,4.6747,4.6771,4.6595,4.6597,4.6598,0,4.6223,4.6272,4.6288,4.6314,4.6326,4.6368,4.6392,4.6373,4.6398,4.6422,4.6458,4.6497,4.6526,4.6594,4.6591,4.6624,4.6609,4.6677,4.6614,4.6618,4.6607,4.6604,4.6607,4.6689,4.6691,4.6692,4.6694,0,4.6384,4.6377,4.6414,4.6449,4.6478,4.6504,4.6527,4.6549,4.6531,4.6562,4.6604,4.6627,4.6673,4.6711,4.6741,4.6747,4.6717,4.6714,4.6728,4.6734,4.6736,4.6733,4.6533,4.6709,4.6707,4.6706,4.6705,4.6705,4.6501,4.6541,4.6559,4.66,4.6615,4.6637,4.6674,4.6674,4.671,4.6746,4.6732,4.678,4.6795,4.6833,4.6843,4.6879,4.6853,4.6875,4.688,4.6885,4.6891,4.6732,4.6885,4.6884,4.6884,4.6884,4.6883,0,4.6657,4.6666,4.6704,4.6737,4.6769,4.674,4.6763,4.6791,4.6834,4.6852,4.6882,4.6929,4.6966,4.6966,4.7,4.7028,4.7015,4.7037,4.7034,4.7035,4.6914,4.6897,4.7047,4.7047,4.7047,4.7047,4.7047,4.7047,4.6742,4.6809,4.6804,4.6877,4.6885,4.6933,4.6948,4.6967,4.6981,4.7036,4.7067,4.7067,4.7077,4.7111,4.7142,4.7141,4.7153,4.7181,4.7174,4.706,4.7044,4.7028,4.7012,4.7184,4.7185,4.7292,4.7293,4.7294]}]]